Loisir ou Compétition : Rejoignez un Club de la Fédération

Résultats

35e GRAND-PRIX du PAYS ROCHOIS

GRAND BORNAND

FS Hommes

Jury de Compétition

Délégué Technique :
MAGAND GUY (DA)
D.T. Adjoint :
FROSSARD CHRISTIAN (SA)
Dir. Epreuve :
ROGUET JEAN CLAUDE (MB)

Caractéristiques de la Piste

Piste :
AUBERGE NORDIQUE LORMAY
Distance :
2.5 km
Point Haut :
 
Point Bas :
 
Montée Tot. :
 
Montée Max. :
 
Homologation :
2010-4-1

Pénalité Appliquée :
 
Coefficient :
 

Catégorie :
U12
Style :
L
Clt Dos Clt/Cat Code An Nom Prénom Com Club Temps Ecart Points
Classés
1 1075 1/U12 FFS2671565 2005 COLOMBAN ALEXIS MB SCNP ROCHOIS 09:23.6 00:00.0
2 1068 2/U12 FFS2686695 2005 PERRILLAT BOTTONET JUDICA MB SC GD BORNAN 09:32.7 00:09.1
3 1081 3/U12 FFS2673756 2005 PEYRON ARTHUR MB CS CHAMONIX 09:45.1 00:21.5
4 1085 4/U12 FFS2686663 2005 PERRILLAT BOITEUX ANTHONY MB SC GD BORNAN 09:58.4 00:34.8
5 1053 5/U12 FFS2686260 2005 BOSSUT AUGUSTIN MB PRAZ LYS-SOM 09:59.2 00:35.6
6 1071 6/U12 FFS2676910 2005 CLAVEL SIMON MB CS LA CLUSAZ 10:01.2 00:37.6
7 1043 7/U12 FFS2686938 2005 VALLEIX JORIS MB SCNP ROCHOIS 10:03.1 00:39.5
8 1049 8/U12 FFS2667744 2005 BIZZOCCHI ESTEBAN MB SC D'AGY 10:09.2 00:45.6
9 1082 9/U12 FFS2686795 2005 DELERCE THIBAULT MB SC D'AGY 10:13.0 00:49.4
10 1078 10/U12 FFS2675566 2006 GARDONI SILVIO LY SC LOMPNES 10:14.3 00:50.7
11 1073 11/U12 FFS2686539 2005 LACROIX MATTHIAS MB DRAGONS ANNY 10:20.1 00:56.5
12 1066 12/U12 FFS2666324 2005 FAVRE FELIX KILLIAN MB SC GD BORNAN 10:24.5 01:00.9
13 1070 13/U12 FFS2686535 2005 FAILLENET JORIS MB DRAGONS ANNY 10:25.5 01:01.9
14 1045 14/U12 FFS2686543 2005 ROMERI NATHAN MB DRAGONS ANNY 10:35.6 01:12.0
15 1052 15/U12 FFS2686681 2005 DELOCHE LINO MB SC GD BORNAN 10:36.6 01:13.0
16 1048 16/U12 FFS2686940 2005 LEVET PROSPER MB SCNP ROCHOIS 10:39.9 01:16.3
17 1054 17/U12 FFS2686939 2005 GRENARD MAX MB SCNP ROCHOIS 10:42.0 01:18.4
18 1069 18/U12 FFS2686538 2005 JOMIER LOIS MB DRAGONS ANNY 10:42.1 01:18.5
19 1074 19/U12 FFS2686672 2005 BROCHANT LUCAS MB SC GD BORNAN 10:49.9 01:26.3
20 1056 20/U12 FFS2687034 2005 FIVEL DEMORET HUGO MB SC CONTAMINE 10:50.3 01:26.7
21 1044 21/U12 FFS2687103 2005 MOREAU SIMEON MB SCNP ROCHOIS 10:55.6 01:32.0
22 1080 22/U12 FFS2686242 2005 VIGUIER QUENTIN MB CS LA CLUSAZ 10:56.2 01:32.6
23 1046 23/U12 FFS2681304 2005 PERSONNAZ LOAN MB DRAGONS ANNY 11:01.4 01:37.8
24 1072 24/U12 FFS2687101 2005 FROIDURE ANTONIN MB SCNP ROCHOIS 11:04.7 01:41.1
25 1042 25/U12 FFS2670681 2005 BEGUINOT MARC LY SC LOMPNES 11:07.5 01:43.9
26 1077 26/U12 FFS2687856 2005 VEISY KILLIAN MB EN HT GIFFRE 11:11.3 01:47.7
27 1083 27/U12 FFS2686262 2005 LESSERTISSEUX VALENTIN MB PRAZ LYS-SOM 11:11.6 01:48.0
28 1057 28/U12 FFS2686698 2005 PERILLAT NOAH MB SC GD BORNAN 11:19.0 01:55.4
29 1087 29/U12 FFS2686801 2005 GARBY KEVIN MB SC D'AGY 11:20.3 01:56.7
30 1088 30/U12 FFS2681171 2005 LUZET HUGO MB CS LA CLUSAZ 11:20.9 01:57.3
31 1058 31/U12 FFS2686693 2005 PASSERAT BENJAMIN MB SC GD BORNAN 11:27.5 02:03.9
32 1059 32/U12 FFS2687035 2005 CORNU MATHIEU MB CS CHAMONIX 11:31.1 02:07.5
33 1086 33/U12 FFS2687102 2005 SYLVESTRE BARON PAUL MB SCNP ROCHOIS 11:42.9 02:19.3
34 1047 34/U12 FFS2686691 2005 FOURNIER BIDOZ MAXIME MB SC GD BORNAN 11:50.6 02:27.0
35 1062 35/U12 FFS2686259 2005 DUCREY BRICE MB PRAZ LYS-SOM 11:57.2 02:33.6
36 1050 36/U12 FFS2686531 2005 BALDUCCI UGO MB DRAGONS ANNY 12:02.0 02:38.4
37 1067 37/U12 FFS2681424 2005 BOUVEROT TINO MB SC CONTAMINE 12:03.0 02:39.4
38 1079 38/U12 FFS2688043 2005 MAGNIEZ OSCAR MB DRAGONS ANNY 12:15.4 02:51.8
39 1060 39/U12 FFS2686544 2005 SOULAS MALO MB DRAGONS ANNY 12:33.0 03:09.4
40 1051 40/U12 FFS2676738 2005 CHETAIL JULES MB CS MEGEVE 12:37.3 03:13.7
41 1084 41/U12 FFS2686914 2005 LESCOUFF RONAN MB CS CHAMONIX 12:56.7 03:33.1
42 1065 42/U12 FFS2675545 2005 REYMOND CLEMENT LY SC LE POIZAT 13:13.1 03:49.5
43 1041 43/U12 FFS2667745 2005 SARRAZIN BAPTISTE MB SC D'AGY 13:23.9 04:00.3
44 1055 44/U12 FFS2687100 2005 BOURLA SIMON MB SCNP ROCHOIS 14:29.5 05:05.9
45 1063 45/U12 FFS2687490 2005 DAGAND LUBIN MB DRAGONS ANNY 14:30.3 05:06.7
Non partants
1061 FFS2688042 2005 JOUVENSAL MATHIEU MB DRAGONS ANNY
1064 FFS2687455 2005 FOUCAULT LECERF MAE MB SCNP ROCHOIS
1076 FFS2686545 2005 VINCENT VACLE LEON MB DRAGONS ANNY